| time (UTC) | temp F | wind direction | speed knots | gust knots | rain 1hr in | rain 24hr in | rain mn in | humidity % | barometer mb |
| 20260504173108 | 66 | 234 | 2.6 | 0.0 | 0.00 | 0.00 | 0.00 | 40 | 1008.8 |
| 20260504171504 | 65 | 188 | 2.6 | 0.0 | 0.00 | 0.00 | 0.00 | 37 | 1009.2 |
| 20260504140109 | 39 | 171 | 0.0 | 0.0 | 0.00 | 0.00 | 0.00 | 84 | 1010.5 |
| 20260504110123 | 40 | 171 | 0.0 | 0.0 | 0.00 | 0.00 | 0.00 | 75 | 1010.2 |
| 20260504081604 | 44 | 171 | 0.0 | 0.0 | 0.00 | 0.00 | 0.00 | 65 | 1009.9 |
| 20260504050013 | 55 | 171 | 0.0 | 0.0 | 0.00 | 0.00 | 0.00 | 47 | 1009.6 |
| 20260504044619 | 56 | 171 | 0.0 | 0.0 | 0.00 | 0.00 | 0.00 | 46 | 1009.4 |
| 20260504043121 | 57 | 171 | 0.0 | 0.0 | 0.00 | 0.00 | 0.00 | 46 | 1009.3 |
| 20260504041612 | 59 | 171 | 0.0 | 0.0 | 0.00 | 0.00 | 0.00 | 40 | 1009.1 |
| 20260504040125 | 60 | 171 | 0.0 | 0.0 | 0.00 | 0.00 | 0.00 | 38 | 1009.1 |
| 20260504034618 | 62 | 171 | 0.0 | 0.0 | 0.00 | 0.00 | 0.00 | 36 | 1008.9 |
| 20260504033119 | 63 | 171 | 0.0 | 0.0 | 0.00 | 0.00 | 0.00 | 35 | 1008.7 |
| 20260504031607 | 66 | 171 | 0.0 | 0.0 | 0.00 | 0.00 | 0.00 | 31 | 1008.7 |
| 20260504030026 | 69 | 171 | 0.0 | 0.0 | 0.00 | 0.00 | 0.00 | 29 | 1008.7 |
| 20260504024621 | 71 | 171 | 0.0 | 0.0 | 0.00 | 0.00 | 0.00 | 26 | 1008.6 |
| 20260504023115 | 72 | 171 | 0.0 | 0.0 | 0.00 | 0.00 | 0.00 | 26 | 1008.5 |
| 20260504021600 | 74 | 171 | 0.0 | 0.0 | 0.00 | 0.00 | 0.00 | 26 | 1008.4 |
| 20260504020009 | 75 | 121 | 0.9 | 0.0 | 0.00 | 0.00 | 0.00 | 24 | 1008.4 |
| 20260504014610 | 76 | 107 | 0.0 | 0.0 | 0.00 | 0.00 | 0.00 | 23 | 1008.4 |
| 20260504013107 | 76 | 118 | 0.9 | 0.0 | 0.00 | 0.00 | 0.00 | 23 | 1008.5 |
| 20260504011605 | 77 | 124 | 0.0 | 0.0 | 0.00 | 0.00 | 0.00 | 24 | 1008.6 |
| 20260504010027 | 75 | 231 | 0.9 | 0.0 | 0.00 | 0.00 | 0.00 | 23 | 1008.6 |
| 20260504004605 | 76 | 242 | 1.7 | 0.0 | 0.00 | 0.00 | 0.00 | 25 | 1008.8 |
| 20260504003051 | 75 | 230 | 1.7 | 0.0 | 0.00 | 0.00 | 0.00 | 25 | 1008.9 |
| 20260504001606 | 75 | 182 | 2.6 | 0.0 | 0.00 | 0.00 | 0.00 | 26 | 1009.0 |
| 20260504000051 | 75 | 250 | 2.6 | 0.0 | 0.00 | 0.00 | 0.00 | 24 | 1009.1 |
| 20260503234549 | 75 | 244 | 3.5 | 0.0 | 0.00 | 0.00 | 0.00 | 25 | 1009.2 |
| 20260503233010 | 76 | 232 | 0.9 | 0.0 | 0.00 | 0.00 | 0.00 | 24 | 1009.3 |
| 20260503231501 | 75 | 216 | 1.7 | 0.0 | 0.00 | 0.00 | 0.00 | 23 | 1009.8 |
| 20260503230032 | 74 | 238 | 2.6 | 0.0 | 0.00 | 0.00 | 0.00 | 25 | 1009.8 |
| 20260503224509 | 76 | 232 | 1.7 | 0.0 | 0.00 | 0.00 | 0.00 | 25 | 1009.9 |
| 20260503223032 | 76 | 254 | 1.7 | 0.0 | 0.00 | 0.00 | 0.00 | 23 | 1010.1 |
| 20260503221606 | 75 | 173 | 1.7 | 0.0 | 0.00 | 0.00 | 0.00 | 26 | 1010.2 |
| 20260503220018 | 74 | 360 | 1.7 | 0.0 | 0.00 | 0.00 | 0.00 | 25 | 1010.3 |
| 20260503214616 | 72 | 236 | 2.6 | 0.0 | 0.00 | 0.00 | 0.00 | 30 | 1010.6 |
| 20260503213128 | 73 | 247 | 2.6 | 0.0 | 0.00 | 0.00 | 0.00 | 25 | 1010.7 |
| 20260503211621 | 72 | 69 | 0.9 | 0.0 | 0.00 | 0.00 | 0.00 | 27 | 1011.0 |
| 20260503210021 | 71 | 192 | 0.9 | 0.0 | 0.00 | 0.00 | 0.00 | 31 | 1010.9 |
| 20260503204507 | 71 | 219 | 3.5 | 0.0 | 0.00 | 0.00 | 0.00 | 31 | 1011.1 |
| 20260503203018 | 72 | 21 | 1.7 | 0.0 | 0.00 | 0.00 | 0.00 | 29 | 1011.5 |
| 20260503201508 | 72 | 188 | 3.5 | 0.0 | 0.00 | 0.00 | 0.00 | 31 | 1011.6 |
| 20260503200002 | 69 | 194 | 2.6 | 0.0 | 0.00 | 0.00 | 0.00 | 35 | 1011.8 |
| 20260503194513 | 71 | 225 | 2.6 | 0.0 | 0.00 | 0.00 | 0.00 | 31 | 1012.1 |
| 20260503193039 | 70 | 213 | 2.6 | 0.0 | 0.00 | 0.00 | 0.00 | 32 | 1012.4 |
| 20260503191621 | 69 | 135 | 2.6 | 0.0 | 0.00 | 0.00 | 0.00 | 32 | 1012.5 |
| 20260503190040 | 69 | 217 | 2.6 | 0.0 | 0.00 | 0.00 | 0.00 | 33 | 1012.4 |
| 20260503184510 | 68 | 219 | 1.7 | 0.0 | 0.00 | 0.00 | 0.00 | 35 | 1012.6 |
| 20260503183105 | 69 | 278 | 1.7 | 0.0 | 0.00 | 0.00 | 0.00 | 33 | 1012.8 |
| 20260503181611 | 68 | 217 | 2.6 | 0.0 | 0.00 | 0.00 | 0.00 | 33 | 1012.9 |
| 20260503180118 | 67 | 213 | 2.6 | 0.0 | 0.00 | 0.00 | 0.00 | 36 | 1013.0 |
| 20260503174618 | 67 | 255 | 0.9 | 0.0 | 0.00 | 0.00 | 0.00 | 36 | 1013.1 |